SES-5

Last updated on Sat Sep 05 2026 00:03:03 GMT+0000 (Coordinated Universal Time)

1 38652U 12036A 26247.59688668 .00000026 00000+0 00000+0 0 9999 2 38652 0.0455 326.6355 0002027 205.4114 31.5330 1.00271104 45255
UTC large
Height (km)
Speed (km/s)
/
Latitude / Longitude
Inclination (degrees)
Orbital Period (minutes)
Azimuth
Elevation
Range (km)
Doppler Factor

Next 0 passes for location: London (51.5072 / 0.1276)

No passes found over London.
SES-5